Location: Bidwell Hollow
(37.7387°N, 90.1707°W)
Time: 01:13:53
(UTC+00:00)

A-11 Canister half - All Passes

Search period start: 14 May 2026 00:00
Search period end: 24 May 2026 00:00
Orbit: 1515 x 1684 km, 47.2° (Epoch: 13 May)

Date Brightness Start Highest point End Pass type
(mag) Time Alt. Az. Time Alt. Az. Time Alt. Az.
14 May - 02:01:08 10° SSW 02:09:37 37° SE 02:17:54 10° ENE visible
14 May - 04:04:29 10° WSW 04:13:59 80° NNW 04:23:17 10° ENE visible
14 May - 06:10:54 10° W 06:19:51 48° N 06:28:43 10° ENE visible
14 May - 08:17:01 10° WNW 08:26:08 58° NNE 08:35:18 10° E visible
14 May - 10:22:07 10° WNW 10:31:14 65° SW 10:40:30 10° SE visible
14 May - 12:29:27 10° W 12:34:48 17° SW 12:40:14 10° SSW daylight
15 May - 01:38:18 10° SSW 01:46:38 35° SE 01:54:45 10° ENE visible
15 May - 03:41:24 10° WSW 03:50:55 83° NNW 04:00:14 10° ENE visible
15 May - 05:47:45 10° W 05:56:44 49° N 06:05:37 10° ENE visible
15 May - 07:53:57 10° WNW 08:03:03 57° NNE 08:12:10 10° E visible
15 May - 09:59:03 10° WNW 10:08:13 68° SW 10:17:31 10° SE visible
15 May - 12:06:03 10° W 12:11:51 19° SW 12:17:47 10° SSW daylight
16 May - 01:15:31 10° S 01:23:40 32° SE 01:31:37 10° ENE visible
16 May - 03:18:19 10° WSW 03:27:52 87° NNW 03:37:12 10° ENE visible
16 May - 05:24:35 10° W 05:33:36 49° N 05:42:31 10° ENE visible
16 May - 07:30:53 10° WNW 07:39:57 55° NNE 07:49:01 10° E visible
16 May - 09:36:01 10° WNW 09:45:12 72° SW 09:54:31 10° SE visible
16 May - 11:42:41 10° W 11:48:55 20° SW 11:55:15 10° S daylight
17 May - 00:52:44 10° S 01:00:42 30° SE 01:08:27 10° ENE daylight
17 May - 02:55:15 10° SW 03:04:50 90° SSE 03:14:10 10° ENE visible
17 May - 05:01:26 10° W 05:10:30 50° N 05:19:25 10° ENE visible
17 May - 07:07:47 10° WNW 07:16:51 54° NNE 07:25:53 10° E visible
17 May - 09:12:58 10° WNW 09:22:12 76° SW 09:31:31 10° SE visible
17 May - 11:19:23 10° W 11:25:58 22° SW 11:32:40 10° S daylight
18 May - 00:30:00 10° S 00:37:44 28° SE 00:45:16 10° ENE daylight
18 May - 02:32:11 10° SW 02:41:47 86° SE 02:51:07 10° ENE visible
18 May - 04:38:16 10° W 04:47:23 51° NNW 04:56:21 10° ENE visible
18 May - 06:44:42 10° WNW 06:53:44 52° NNE 07:02:44 10° E visible
18 May - 08:49:55 10° WNW 08:59:10 80° SW 09:08:31 10° SE visible
18 May - 10:56:07 10° WNW 11:03:01 24° SW 11:10:02 10° S daylight
19 May - 00:07:17 10° S 00:14:46 26° SE 00:22:04 10° ENE daylight
19 May - 02:09:08 10° SW 02:18:45 82° SE 02:28:06 10° ENE visible
19 May - 04:15:06 10° W 04:24:16 52° NNW 04:33:16 10° ENE visible
19 May - 06:21:36 10° WNW 06:30:38 51° NNE 06:39:36 10° E visible
19 May - 08:26:52 10° WNW 08:36:09 84° SW 08:45:29 10° SE visible
19 May - 10:32:53 10° WNW 10:40:05 26° SW 10:47:22 10° S daylight
19 May - 23:44:36 10° S 23:51:49 24° SE 23:58:50 10° ENE daylight
20 May - 01:46:06 10° SW 01:55:43 79° SE 02:05:03 10° ENE visible
20 May - 03:51:56 10° W 04:01:09 53° NNW 04:10:11 10° ENE visible
20 May - 05:58:30 10° WNW 06:07:32 50° N 06:16:28 10° E visible
20 May - 08:03:50 10° WNW 08:13:07 88° SSW 08:22:27 10° SE visible
20 May - 10:09:41 10° WNW 10:17:07 28° SW 10:24:40 10° S visible
20 May - 23:21:58 10° S 23:28:51 22° SE 23:35:34 10° E daylight
21 May - 01:23:03 10° SW 01:32:41 75° SE 01:42:01 10° ENE visible
21 May - 03:28:45 10° W 03:38:03 55° NNW 03:47:07 10° ENE visible
21 May - 05:35:23 10° WNW 05:44:24 50° N 05:53:20 10° E visible
21 May - 07:40:47 10° WNW 07:50:05 89° NNE 07:59:24 10° ESE visible
21 May - 09:46:30 10° WNW 09:54:10 30° SW 10:01:56 10° S visible
21 May - 22:59:22 10° SSE 23:05:53 20° SE 23:12:15 10° E daylight
22 May - 01:00:02 10° SW 01:09:40 71° SE 01:18:58 10° ENE daylight
22 May - 03:05:36 10° W 03:14:56 56° NNW 03:24:03 10° ENE visible
22 May - 05:12:16 10° WNW 05:21:18 49° N 05:30:11 10° E visible
22 May - 07:17:43 10° WNW 07:27:03 85° NNE 07:36:21 10° ESE visible
22 May - 09:23:20 10° WNW 09:31:13 33° SW 09:39:10 10° S visible
22 May - 22:36:50 10° SSE 22:42:56 19° SE 22:48:53 10° E daylight
23 May - 00:37:01 10° SW 00:46:38 67° SE 00:55:56 10° ENE daylight
23 May - 02:42:26 10° W 02:51:50 58° NNW 03:01:00 10° ENE visible
23 May - 04:49:08 10° WNW 04:58:10 48° N 05:07:03 10° E visible
23 May - 06:54:40 10° WNW 07:04:01 82° NNE 07:13:18 10° ESE visible
23 May - 09:00:11 10° WNW 09:08:15 35° SW 09:16:24 10° SSE visible
23 May - 22:14:22 10° SSE 22:19:58 17° SE 22:25:28 10° E daylight
